STARLINK-32754, 62527

Orbit data source: Space-Track

STARLINK-32754, 62527 is a payload satellite owned by SpaceX/Seattle (US) in LEO that was launched on Wed, 08 Jan 2025 UTC via an FALCON 9 launch vehicle from the Air Force Eastern Test Range (AFETR). Payloads include a variety of satellites, spacecraft, and rockets equipped with specific instruments for various scientific and technological missions. These include communications satellites like Starlink; space stations such as the ISS; scientific satellites like the Hubble; Earth observation satellites from companies like Planet Labs, Umbra, and HawkEye 360; GPS; miniature CubeSats for education and research; and military/defense satellites.

Loading next visibility...
STARLINK-32754 details
Identifier
62527, 2025-004S
Orbit
LEO
Last TLE update8 hours ago
Origin
Flag of USSpaceX/Seattle (US)
ManufacturerSpaceX/Seattle
MissionOperational spacecraft
Bus & MotorSTARLINK V2M, Unknown motor
Mass730 kg wet, ~700 kg dry
Launch date (UTC)
2025-01-08 (1 month ago)
Launch vehicle
FALCON 9
Launch site
Air Force Eastern Test Range (AFETR)
Object type
Payload
Rocket body
Debris
Shape & HBRUnknown
Radar Cross SectionLarge (>1 m²)

Expand to show TLE details & history

TLE from 8 hours ago
0 STARLINK-32754
1 62527U 25004S   25035.83335648 -.01541232  00000-0 -29569-1 0  9990
2 62527  42.9991 311.8864 0001311 256.5956  61.7139 15.50122008  5526
Epoch: 2025-02-04T20:00Z
Definitive object data (Epoch: 2025-02-04T20:00:01.999Z)
Latitude-27.1405°
Longitude-156.49392°
Altitude422.871 km
Speed7.658 km/s
True Right ascension18h 34m 59s
True Declination-26° 59' 39"
Sunlit
Object was in daylight at TLE epoch
Visualization TLE readout
Latitude0.37801°
Longitude-124.87873°
Altitude419.495 km
Speed7.661 km/s
Apparent Right ascension19h 33m 04s
Apparent Declination-20° 09' 17"
Sunlit
Object is in daylight
Visualization observer readout
Local Sidereal Time05:56:47
Azimuth306.731° NW
Elevation-61.462°
Doppler factor1
Orbital elements
Apogee altitude419.225 km
Perigee altitude417.443 km
Semi-major axis6,796.471 km
Eccentricity0.0001311
Inclination42.9991°
RAAN311.8864°
Arg. of periapsis256.5956°
True anomaly61.72713°
Mean anomaly61.7139°
Eccentric anomaly61.72051°
Mean motion3.87363 °/min
BSTAR-0.029569
Orbital period92.94 mins
Loading maneuver chart data...
Loading historical data...
Loading historical data...
Loading historical data...
Loading historical data...
Loading historical data...
Loading historical data...
Loading historical data...

STARLINK-32754 Visibility forecast

Observer location: undefined°, undefined

Span
Click to sort rows by Start time (UTC) header in descending order
Start Az.
Max El. time (UTC)
Max El. Az.
Max El.
End time (UTC)
End Az.
4 mins2025-02-05 21:10:01.944Z187.877° SSW2025-02-05 21:11:01.944Z161.726° S23.997°2025-02-05 21:14:01.944Z91.828° ESE
5 mins2025-02-05 22:47:01.944Z262.144° W2025-02-05 22:49:01.944Z7.58° NNE43.786°2025-02-05 22:52:01.944Z70.193° E
5 mins2025-02-06 00:25:01.944Z296.934° NW2025-02-06 00:27:01.944Z15.693° NNE36.469°2025-02-06 00:30:01.944Z78.146° E
5 mins2025-02-06 02:03:01.944Z286.092° WNW2025-02-06 02:05:01.944Z125.035° SE43.212°2025-02-06 02:08:01.944Z111.715° ESE
|